This is the latest recevied weather packets stored in our database for station/object K7KAZ. If no packets are shown the sender has not sent any weather packets the latest 10 day(s).
| Time | Temp. | Humidity | Pressure | Rain* | Wind** | Luminosity | Snow |
|---|---|---|---|---|---|---|---|
| 1777830509 | 29.44° C | 26% | 1014.4 hPa | 0 mm | - | 745 W/m² | - |
| 1777830208 | 29.44° C | 26% | 1014.4 hPa | 0 mm | - | 541 W/m² | - |
| 1777829903 | 29.44° C | 27% | 1014.3 hPa | 0 mm | - | 685 W/m² | - |
| 1777829599 | 29.44° C | 29% | 1014.6 hPa | 0 mm | - | 473 W/m² | - |
| 1777829296 | 28.89° C | 29% | 1014.6 hPa | 0 mm | - | 542 W/m² | - |
| 1777828994 | 28.89° C | 29% | 1014.6 hPa | 0 mm | - | 492 W/m² | - |
| 1777828690 | 29.44° C | 29% | 1014.7 hPa | 0 mm | - | 404 W/m² | - |
| 1777828387 | 28.89° C | 29% | 1014.8 hPa | 0 mm | - | 361 W/m² | - |
| 1777828084 | 28.33° C | 30% | 1014.8 hPa | 0 mm | - | 339 W/m² | - |
| 1777827781 | 28.89° C | 30% | 1014.8 hPa | 0 mm | - | 537 W/m² | - |
| 1777827477 | 28.89° C | 29% | 1015 hPa | 0 mm | - | 538 W/m² | - |
| 1777827175 | 28.33° C | 30% | 1014.7 hPa | 0 mm | - | 537 W/m² | - |
| 1777826870 | 28.33° C | 30% | 1014.9 hPa | 0 mm | - | 443 W/m² | - |
| 1777826569 | 27.78° C | 30% | 1014.7 hPa | 0 mm | - | 464 W/m² | - |
| 1777826264 | 27.78° C | 31% | 1014.9 hPa | 0 mm | - | 440 W/m² | - |
| 1777825963 | 27.78° C | 30% | 1014.7 hPa | 0 mm | - | 344 W/m² | - |
| 1777825659 | 27.78° C | 31% | 1015 hPa | 0 mm | - | 308 W/m² | - |
| 1777825358 | 27.78° C | 31% | 1014.7 hPa | 0 mm | - | 322 W/m² | - |
| 1777825054 | 27.78° C | 31% | 1014.9 hPa | 0 mm | - | 289 W/m² | - |
| 1777824750 | 27.78° C | 31% | 1014.8 hPa | 0 mm | - | 299 W/m² | - |
| 1777824447 | 27.22° C | 31% | 1014.8 hPa | 0 mm | - | 230 W/m² | - |
| 1777824143 | 27.22° C | 31% | 1014.7 hPa | 0 mm | - | 208 W/m² | - |
| 1777823839 | 27.22° C | 31% | 1014.6 hPa | 0 mm | - | 228 W/m² | - |
| 1777823537 | 27.22° C | 32% | 1014.8 hPa | 0 mm | - | 185 W/m² | - |
| 1777823234 | 27.22° C | 31% | 1014.7 hPa | 0 mm | - | 206 W/m² | - |
* Rain latest hour (hover to see other rain measurements)
** Current wind speed in m/s (hover to see current wind gust speed)